This demonstration page uses our WeatherBlox Daily Observations layout. Learn more.

Left ArrowRight Arrow

Hourly Observations for April 17, 2016

Temp ( °F °C ) Dew Point ( °F °C ) Humidity (%) Winds ( mph kmh ) Pressure ( in mb ) Visibility ( mi km ) Precip ( " mm )
12:54 am 00:54 Cloudy 66 18.9 55 12.8 68 68 SE 16 26 30.06 1018 10 16 0.00 0.00
1:54 am 01:54 Clear 64 17.8 55 12.8 73 73 SSE 16 26 30.08 1019 10 16 0.00 0.00
2:54 am 02:54 Mostly Cloudy 63 17.2 55 12.8 76 76 SSE 15 24 30.11 1020 10 16 0.00 0.00
3:54 am 03:54 Cloudy 63 17.2 54 12.2 73 73 SSE 15 24 30.12 1020 10 16 0.00 0.00
4:54 am 04:54 Cloudy 63 17.2 54 12.2 73 73 SE 13 20 30.11 1020 10 16 0.00 0.00
5:54 am 05:54 Cloudy 63 17.2 53 11.7 70 70 SE 14 22 30.11 1020 10 16 0.00 0.00
6:50 am 06:50 Mostly Cloudy 63 17 54 12 73 73 SE 13 20 30.15 1021 10 16 0.00 0.00
6:54 am 06:54 Cloudy 62 16.7 54 12.2 75 75 SE 17 28 30.14 1021 10 16 0.00 0.00
7:26 am 07:26 Cloudy 63 17 54 12 73 73 SE 16 26 30.15 1021 10 16 0.00 0.00
7:54 am 07:54 Cloudy 62 16.7 55 12.8 78 78 SE 13 20 30.14 1021 10 16 0.00 0.00
8:54 am 08:54 Cloudy 64 17.8 55 12.8 73 73 SE 13 20 30.14 1021 10 16 0.00 0.00
9:33 am 09:33 Mostly Cloudy 66 18.9 55 12.8 68 68 SE 15 24 30.12 1020 10 16 0.00 0.00
9:54 am 09:54 Cloudy 66 18.9 55 12.8 68 68 SSE 18 30 30.14 1021 10 16 0.00 0.00
10:54 am 10:54 Cloudy 68 20 55 12.8 63 63 SSE 20 31 30.14 1021 10 16 0.00 0.00
11:54 am 11:54 Cloudy 68 20 54 12.2 61 61 SSE 20 31 30.15 1021 10 16 0.00 0.00
12:54 pm 12:54 Cloudy 68 20 55 12.8 63 63 SE 17 28 30.14 1021 10 16 0.00 0.00
1:54 pm 13:54 Cloudy 71 21.7 56 13.3 59 59 S 18 30 30.13 1020 10 16 0.00 0.00
2:54 pm 14:54 Mostly Cloudy 70 21.1 55 12.8 59 59 SSE 16 26 30.13 1020 10 16 0.00 0.00
3:54 pm 15:54 Cloudy 66 18.9 56 13.3 70 70 S 16 26 30.14 1021 10 16 0.00 0.00
4:54 pm 16:54 Cloudy with Light Rain 63 17.2 59 15 87 87 S 14 22 30.14 1021 7 11 0.01 0.25
5:54 pm 17:54 Cloudy 64 17.8 59 15 84 84 S 8 13 30.13 1020 10 16 0.00 0.03
6:54 pm 18:54 Cloudy with Light Rain 63 17.2 59 15 87 87 S 3 6 30.14 1021 8 13 0.00 0.03
7:54 pm 19:54 Cloudy with Light Rain 62 16.7 60 15.6 93 93 Calm 30.16 1021 4 6 0.03 0.76
8:54 pm 20:54 Cloudy with Light Rain 61 16.1 60 15.6 97 97 SSE 5 7 30.17 1022 5 8 0.06 1.52
9:54 pm 21:54 Cloudy with Light Rain 61 16.1 60 15.6 97 97 SE 5 7 30.18 1022 5 8 0.07 1.78
10:54 pm 22:54 Cloudy with Light Rain 61 16.1 60 15.6 97 97 ESE 5 7 30.17 1022 6 10 0.03 0.76
11:54 pm 23:54 Cloudy with Light Rain 61 16.1 59 15 93 93 E 5 7 30.16 1021 8 13 0.02 0.51

Powered by AerisWeather